Location: Hains Lake
(37.8540°N, 99.8578°W)
Time: 05:14:18
(UTC+00:00)

Vanguard 2 Rocket - Pass Details

Date: 19 April 2021
Orbit: 553 x 3326 km, 32.9° (Epoch: 07 May)

Event Time Altitude Azimuth Distance (km) Brightness Sun altitude
Rises 03:28:23 0° 282° (WNW) 6,851 12.4 -23.8°
Reaches altitude 10° 03:34:46 10° 271° (W) 5,411 11.5 -24.8°
Maximum altitude 03:44:59 22° 228° (SW) 3,587 9.9 -26.3°
Enters shadow 03:50:31 15° 191° (SSW) 3,516 9.6 -27.1°
Drops below altitude 10° 03:52:15 10° 182° (S) 3,696 - -27.4°
Sets 03:55:37 0° 166° (SSE) 4,277 - -27.8°
